Content
SEND FEEDBACK

Daily
Averages
Monthly
Summary
United States of America

BATAVIA, NEW YORK


Home > North America > United States > New York
Elevation: 910 feet     Latitude: 43 01N     Longitude: 078 11W

WEATHER
 
SELECT A DAY
Number of Records: 220,127;   Date Range: 1/1/95 - 7/7/14
 
SHARE

PRINT THIS DATA

[ ← Previous Day ]
WEATHER ALMANAC - JANUARY 8, 2014
[ Next Day → ]
[ °C ]   °F
Weather ElementAverageHighLow
Temperature13.1 °F19.4 °F (10:38 pm)6.1 °F (12:54 am)
Dewpoint6.9 °F15.8 °F (11:24 pm)1 °F (2:54 am)
Humidity77 %92 % (10:13 am)59 % (6:54 pm)
Barometer30.39 in30.47 in (11:54 pm)30.27 in (1:14 am)
Wind Speed11.3 mph19.6 mph (12:54 pm)
Wind Gust24.2 mph (12:54 pm)
Weather ElementAverage
Visibility3.3 mi
Wind DirectionWSW (234.2 °)

Weather ElementTotal
Precipitation0.49 in
Heating Degree Days52.3 (Base 65)
Averaged from 43 records on January 8, 2014
WEATHER CONDITIONS BREAKOUT
WIND DIRECTION BREAKOUT
WEATHER BY HOUR - JANUARY 8, 2014
[ °C ]   °F
Local TimeTemperatureDewpointHumidityBarometerVisibilityWind DirectionWind SpeedGust SpeedPrecipitationEventsConditions
12:54 AM6.1 °F1.9 °F83 %30.32 in0.8 miWest (280°)13.8 mph0.03 inSnowLight Snow
1:14 AM6.8 °F1.4 °F79 %30.27 in1.0 miWest (280°)13.8 mph0.00 inSnowLight Snow
1:23 AM6.8 °F1.4 °F79 %30.27 in0.8 miWest (270°)12.7 mph0.00 inSnowLight Snow
1:54 AM6.1 °F1.9 °F83 %30.34 in0.8 miWest (270°)13.8 mph0.01 inSnowLight Snow
2:52 AM6.8 °F1.4 °F79 %30.30 in1.0 miWest (270°)16.1 mph23.0 mph0.01 inSnowLight Snow
2:54 AM6.1 °F1.0 °F80 %30.36 in1.0 miWest (280°)16.1 mph23.0 mph0.01 inSnowLight Snow
3:54 AM6.1 °F1.9 °F83 %30.37 in1.0 miWest (270°)11.5 mph0.01 inSnowLight Snow
4:54 AM7.0 °F3.0 °F84 %30.37 in1.2 miWest (270°)9.2 mph0.00 inSnowLight Snow
5:54 AM8.1 °F5.0 °F87 %30.38 in1.0 miSSW (210°)9.2 mph0.00 inSnowLight Snow
6:05 AM8.6 °F3.2 °F79 %30.33 in0.8 miSSW (210°)10.4 mph0.01 inSnowLight Snow
6:54 AM8.1 °F3.9 °F83 %30.38 in0.5 miSW (220°)13.8 mph0.02 inFog-SnowSnow
7:54 AM8.1 °F3.9 °F83 %30.40 in0.2 miSW (220°)12.7 mph0.01 inFog-SnowHeavy Snow
8:54 AM7.0 °F3.9 °F87 %30.43 in0.2 miSouth (190°)9.2 mph0.01 inFog-SnowHeavy Snow
9:22 AM8.6 °F3.2 °F79 %30.37 in0.8 miSSW (210°)10.4 mph0.00 inSnowLight Snow
9:39 AM8.6 °F5.0 °F85 %30.38 in0.8 miSSW (200°)11.5 mph0.00 inSnowLight Snow
9:52 AM8.6 °F5.0 °F85 %30.38 in1.0 miSSW (200°)10.4 mph0.00 inSnowLight Snow
9:54 AM9.0 °F5.0 °F84 %30.44 in1.0 miSSW (200°)10.4 mph0.00 inSnowLight Snow
10:13 AM8.6 °F6.8 °F92 %30.39 in0.8 miSSW (210°)10.4 mph0.04 inSnowLight Snow
10:54 AM10.0 °F6.1 °F84 %30.45 in0.5 miSW (220°)12.7 mph0.04 inFog-SnowSnow
11:54 AM12.0 °F7.0 °F80 %30.42 in0.5 miSW (220°)15.0 mph0.14 inSnowSnow
12:54 PM12.9 °F8.1 °F81 %30.40 in1.0 miSW (220°)19.6 mph24.2 mph0.00 inSnowLight Snow
1:21 PM14.0 °F6.8 °F73 %30.35 in1.8 miSW (230°)16.1 mph0.00 inSnowLight Snow
1:31 PM14.0 °F6.8 °F73 %30.36 in4.0 miSW (220°)17.3 mph0.00 inSnowLight Snow
1:54 PM15.1 °F5.0 °F64 %30.40 in8.0 miSW (220°)12.7 mph0.02 inSnowLight Snow
1:59 PM15.8 °F6.8 °F68 %30.35 in9.0 miSW (230°)12.7 mph0.03 inSnowLight Snow
2:54 PM17.1 °F6.1 °F62 %30.40 in10.0 miSW (220°)12.7 mph0.06 inMostly Cloudy
3:54 PM17.6 °F6.8 °F63 %30.41 in10.0 miSW (220°)13.8 mph20.7 mphMostly Cloudy
4:54 PM18.0 °F8.1 °F65 %30.40 in10.0 miSW (220°)11.5 mphOvercast
5:54 PM18.0 °F6.1 °F60 %30.42 in10.0 miSW (220°)6.9 mphOvercast
6:20 PM17.6 °F6.8 °F63 %30.37 in10.0 miSW (220°)5.8 mphOvercast
6:54 PM19.0 °F7.0 °F59 %30.43 in10.0 miSW (230°)9.2 mphOvercast
7:54 PM19.0 °F7.0 °F59 %30.44 in10.0 miSSW (210°)9.2 mphSnowLight Snow
8:54 PM18.0 °F10.0 °F71 %30.44 in3.0 miSW (230°)9.2 mph0.00 inSnowLight Snow
9:25 PM17.6 °F10.4 °F73 %30.40 in2.5 miSW (230°)6.9 mph0.00 inSnowLight Snow
9:54 PM18.0 °F12.0 °F78 %30.45 in2.0 miSW (230°)6.9 mph0.00 inSnowLight Snow
10:08 PM17.6 °F12.2 °F79 %30.41 in1.8 miWSW (240°)8.1 mph0.00 inSnowLight Snow
10:38 PM19.4 °F12.2 °F74 %30.41 in4.0 miSW (230°)9.2 mph0.00 inSnowLight Snow
10:54 PM19.0 °F14.0 °F81 %30.46 in3.0 miSW (230°)8.1 mph0.00 inSnowLight Snow
11:03 PM19.4 °F14.0 °F80 %30.42 in1.0 miWSW (240°)5.8 mph0.00 inSnowLight Snow
11:24 PM19.4 °F15.8 °F86 %30.42 in3.0 miWest (280°)10.4 mph0.01 inSnowLight Snow
11:32 PM19.4 °F14.0 °F80 %30.42 in3.0 miWest (270°)10.4 mph0.01 inSnowLight Snow
11:40 PM19.4 °F14.0 °F80 %30.42 in3.0 miWest (270°)9.2 mph0.01 inSnowLight Snow
11:54 PM19.0 °F14.0 °F81 %30.47 in4.0 miWest (260°)10.4 mph0.01 inSnowLight Snow
Hourly data recorded from KBUF, located miles away from Batavia, New York







STORIES FROM OUR PARTNERS